Home   Weather   Płock   Past weeks

Flag for Poland Past Weather in Płock, Poland — Yesterday and Last 2 Weeks

Now
35 °F

Chilly.


Feels Like: 29 °F
Forecast: 35 / 42 °F
Wind: 7 mph from Northwest

Location: Plock

Current Time: Feb 25, 2017 at 3:08:40 pm

Latest Report: Feb 25, 2017 at 2:00 pm


Visibility: 14 mi

Pressure: 30.08 "Hg

Humidity: 70%

Dew Point: 26 °F

Location of PłockLocation

Past Weather in Płock — Graph

°F

Płock Temperature Yesterday

Maximum temperature yesterday: 45 °F (at 1:00 am)
Minimum temperature yesterday: 30 °F (at 11:00 pm)
Average temperature yesterday: 38 °F

High & Low Weather Summary for the Past Weeks

 TemperatureHumidityPressure
High48 °F (Feb 22, 5:00 pm)100% (Feb 18, 10:00 am)30.76 "Hg (Feb 18, 10:00 am)
Low12 °F (Feb 11, 7:00 am)45% (Feb 10, 7:00 pm)29.12 "Hg (Feb 24, 1:00 am)
Average32 °F83%30.13 "Hg
* Reported Feb 10 1:00 pm — Feb 25 1:00 pm, Płock, Weather by CustomWeather, © 2017

Note: Actual official high and low records may vary slightly from our data, if they occured in-between our weather recording intervals... More about our weather records

Advertising

Płock Weather History for the Previous 24 Hours

Scroll right to see more
 ConditionsComfort  
Time TempWeatherWind HumidityBarometerVisibility
1:00 pm
Sat, Feb 25
35 °FChilly.8 mph70%30.06 "Hg19 mi
12:00 pm35 °FChilly.7 mph75%30.06 "Hg18 mi
11:00 am34 °FChilly.7 mph78%30.04 "Hg14 mi
10:00 am33 °FChilly.7 mph85%30.02 "Hg9 mi
9:00 am32 °FSnow flurries. Cloudy.7 mph89%29.99 "Hg9 mi
8:00 am30 °FLight snow. Cloudy.5 mph95%29.97 "Hg5 mi
7:00 am31 °FLight snow. Cloudy.8 mph89%29.94 "Hg6 mi
6:00 am31 °FChilly.7 mph87%29.91 "Hg9 mi
5:00 am31 °FChilly.7 mph88%29.90 "Hg11 mi
4:00 am31 °FChilly.7 mph86%29.89 "Hg10 mi
3:00 am31 °FChilly.7 mph90%29.88 "Hg10 mi
2:00 am29 °FChilly.6 mph88%29.87 "Hg9 mi
1:00 am28 °FChilly.5 mph88%29.87 "Hg11 mi
12:00 am30 °FChilly.6 mph85%29.86 "Hg11 mi
11:00 pm
Fri, Feb 24
30 °FChilly.5 mph86%29.85 "Hg10 mi
10:00 pm32 °FChilly.7 mph84%29.84 "Hg12 mi
9:00 pm31 °FChilly.5 mph90%29.82 "Hg11 mi
8:00 pm32 °FChilly.6 mph89%29.79 "Hg18 mi
7:00 pm32 °FChilly.6 mph89%29.75 "Hg15 mi
6:00 pm32 °FChilly.6 mph93%29.70 "Hg11 mi
5:00 pm32 °FSnow flurries. Cloudy.6 mph93%29.65 "Hg2 mi
4:00 pm31 °FLight snow. Cloudy.7 mph93%29.58 "Hg1 mi
3:00 pm32 °FLight snow. Cloudy.8 mph93%29.47 "Hg1 mi
Weather by CustomWeather, © 2017

See weather overviewHow to use our weather pages